Weather Roundup
Issued by NWS

Home | Current Version | Previous Version | Text Only | Print | Product List | Glossary On
Versions: 1 2 3 4 5 6 7 8 9 10 11 12 13 14 15 16 17 18 19 20 21 22 23 24 25 26 27 28 29 30 31 32 33 34 35 36 37 38 39 40 41 42 43 44 45 46 47 48 49 50
000
NZUS93 KARX 310910
HRRWXR

CURRENT HOURLY OBSERVATIONS ACROSS
MUCH OF THE UPPER MISSISSIPPI VALLEY
NATIONAL WEATHER SERVICE LA CROSSE WI
300 AM CST SAT JAN 31 2015


...SOUTHEAST MINNESOTA...


CITY           SKY/WX    TMP DP  RH WIND       PRES   REMARKS
ROCHESTER      CLEAR     20  16  84 S6        30.12F WCI  12
ROCHESTER/MAYO FAIR      26  19  74 SW3       30.13S
WINONA         CLEAR     27  18  69 W5        30.17F WCI  21
AUSTIN         CLEAR     19  18  93 S5        30.13F WCI  13
ALBERT LEA     FAIR      27  23  86 SW7       30.12F WCI  19
DODGE CENTER   PTCLDY    21  19  93 SW9       30.11F WCI  11
PRESTON        CLEAR     22  16  78 SW13      30.13F WCI  10
OWATONNA       CLEAR     23  19  86 SW5       30.13S WCI  17
FARIBAULT      CLEAR     23  21  93 S3        30.13F
$$

...ELSEWHERE IN MINNESOTA...


CITY           SKY/WX    TMP DP  RH WIND       PRES   REMARKS
MINNEAPOLIS    MOCLDY    20  16  84 E3        30.13S
INTNL FALLS    CLOUDY    14   9  80 N13       30.13R WCI   0
DULUTH         CLOUDY    20  13  74 W6        30.06S WCI  12
RED WING       CLOUDY    23  18  80 CALM      30.14F
REDWOOD FALLS  CLEAR     25  23  92 NW8       30.12S WCI  16
MANKATO        CLEAR     25  19  80 SW5       30.13S WCI  19
WORTHINGTON    PTCLDY    27  23  86 SW8       30.11F WCI  18
FAIRMONT       PTCLDY    27  21  80 W7        30.11F WCI  19
$$

...SOUTHWEST WISCONSIN...


CITY           SKY/WX    TMP DP  RH WIND       PRES   REMARKS
LA CROSSE      CLEAR     22  13  68 SE6       30.17F WCI  14
PRAIRIE DU CHI CLEAR     25  13  62 S3        30.20F
BOSCOBEL       CLEAR     21  14  74 SW3       30.20F
LONE ROCK      PTCLDY    22  14  71 S5        30.20F WCI  16
PLATTEVILLE    CLEAR     20  16  84 S10       30.20F WCI   9
FORT MC COY    CLOUDY    26  14  60 SW3       30.17F
CAMP DOUGLAS   CLOUDY    26  16  66 SW6       30.15F WCI  19
VIROQUA        FAIR      21  14  74 SW7       30.14F WCI  12
WIS DELLS      CLOUDY    24  15  69 SW9       30.17F WCI  14
$$

...ELSEWHERE IN WISCONSIN...


CITY           SKY/WX    TMP DP  RH WIND       PRES   REMARKS
MILWAUKEE      MOCLDY    21  13  71 SW8       30.25F WCI  11
MADISON        CLEAR     24  15  68 S6        30.20F WCI  17
GREEN BAY      CLOUDY    20  13  74 S8        30.19F WCI  10
EAU CLAIRE     CLOUDY    20  11  68 CALM      30.13F
BLACK RVR FLS  CLOUDY    17  10  74 CALM      30.16S
MEDFORD        CLOUDY    18  10  70 S6        30.09F WCI  10
WAUSAU         CLOUDY    18   8  65 S6        30.11F WCI  10
WIS RAPIDS     CLOUDY    19   9  65 CALM      30.17F
MARSHFIELD     CLOUDY    18   9  68 S5        30.13F WCI  11
RICE LAKE      CLOUDY    19  12  73 SE3       30.13S
$$

...NORTHEAST IOWA...


CITY           SKY/WX    TMP DP  RH WIND       PRES   REMARKS
DECORAH        CLEAR     25  16  68 SW7G13    30.15S WCI  17
MASON CITY     CLEAR     27  21  78 SW13      30.15F WCI  16
CHARLES CITY   CLEAR     21  18  86 S8        30.16F WCI  12
OELWEIN        CLEAR     19  16  86 S9        30.18F WCI   9
$$

...ELSEWHERE IN IOWA...


CITY           SKY/WX    TMP DP  RH WIND       PRES   REMARKS
DES MOINES     MOCLDY    28  19  69 S6        30.22F WCI  22
IOWA CITY      CLEAR     23  19  85 S3        30.27F
FORT DODGE     PTCLDY    27  21  80 S7        30.16F WCI  19
$$

...NORTHERN ILLINOIS...


CITY           SKY/WX    TMP DP  RH WIND       PRES   REMARKS
CHICAGO-OHARE  CLOUDY    24  17  74 SW6       30.28F WCI  17
CHICAGO-MIDWAY CLOUDY    27  20  75 SW8       30.30F WCI  19
MOLINE         PTCLDY    26  18  71 SW6       30.27F WCI  19
ROCKFORD       PTCLDY    22  16  78 S6        30.28F WCI  14
PEORIA         CLOUDY    28  21  75 SW8       30.32F WCI  20
$$

NOTE: "FAIR" INDICATES FEW OR NO CLOUDS BELOW 12,000 FEET WITH NO
SIGNIFICANT WEATHER AND/OR OBSTRUCTIONS TO VISIBILITY. WIND
SPEEDS ARE IN MILES-PER-HOUR.



USA.gov is the U.S. government's official web portal to all federal, state and local government web resources and services.